STARLINK-11317, 61248

Orbit data source: Space-Track

STARLINK-11317, 61248 is a payload satellite owned by SpaceX/Seattle (US) in LEO that was launched on Wed, 25 Sep 2024 UTC via an FALCON 9 launch vehicle from the Air Force Western Test Range (AFWTR). Payload-class satellites include a variety of spacecraft equipped with specific instruments for various scientific and technological missions. These include communications satellites like Starlink; space stations such as the ISS; scientific satellites like the Hubble; Earth observation satellites from companies like Planet Labs, Umbra, and HawkEye 360; GPS; miniature CubeSats for education and research; and military/defense satellites.

Loading next visibility...
Identifier
61248, 2024-175F
Orbit
LEO
Last TLE update
22 hours ago
Origin
Manufacturer
SpaceX/Seattle
Mission
Operational Commercial Communications
Bus & Motor
STARLINK V2M, Unknown motor
Mass
730 kg wet, ~700 kg dry
Launch date (UTC)
2024-09-25 (7 months ago)
Launch vehicle
FALCON 9
Launch site
Air Force Western Test Range (AFWTR)
Object type
Payload
Rocket body
Debris
Shape & HBR
Box + 2 Pan, 29 m
Radar Cross Section
36.964 m², Large (>1 m²)

Expand to show TLE details & history

TLE from 22 hours ago
0 STARLINK-11317
1 61248U 24175F   25128.35474296  .00000294  00000-0  72866-5 0  9997
2 61248  53.1584 121.2025 0001290  75.9841 284.1320 15.69705400 35418
Epoch: 2025-05-08T08:30Z
Definitive object data (Epoch: 2025-05-08T08:30:49.791Z)
Latitude
-0.00006°
Longitude
127.06856°
Altitude
360.443 km
Speed
7.694 km/s
True Right ascension
08h 04m 48s
True Declination
0° 00' 00"
Sunlit
Object was in daylight at TLE epoch
Visualization TLE readout
Latitude
-2.23385°
Longitude
-55.82078°
Altitude
361.172 km
Speed
7.694 km/s
Apparent Right ascension
22h 35m 44s
Apparent Declination
-30° 41' 48"
Sunlit
Object is in daylight
Visualization observer readout
Local Sidereal Time
14:49:46
Azimuth
100.7° ESE
Elevation
-38.445°
Doppler factor
1
Orbital elements
Apogee altitude
360.87 km
Perigee altitude
359.132 km
Semi-major axis
6,738.138 km
Eccentricity
0.000129
Inclination
53.1584°
RAAN
121.2025°
Arg. of periapsis
75.9841°
True anomaly
284.11766°
Mean anomaly
284.132°
Eccentric anomaly
284.12483°
Mean motion
3.92404 °/min
BSTAR
0.0000072866
Orbital period
91.74 mins
Loading maneuver chart data...
Loading SW <> Apogee altitude chart data...
Loading historical data...
Loading historical data...
Loading historical data...
Loading historical data...
Loading historical data...
Loading historical data...
Loading historical data...

STARLINK-11317 Visibility forecast

Observer location: undefined°, undefined°

Span
Click to sort rows by Start time (UTC) header in descending order
Start Az.
Max El. time (UTC)
Max El. Az.
Max El.
End time (UTC)
End Az.
4 mins2025-05-09 07:53:53.577Z344.045° N2025-05-09 07:55:53.577Z35.403° NE19.494°2025-05-09 07:57:53.577Z79.689° E
4 mins2025-05-10 01:58:53.577Z240.383° WSW2025-05-10 01:59:53.577Z280.16° WNW43.452°2025-05-10 02:02:53.577Z46.971° ENE
|